Eielson Air Force Base, AK

8:43 PM AKDT on September 26, 2016 (GMT -0800)
Eielson Air Force Base

Weather History for PAEI - November, 2014

Change the Weather History Date:

Saturday, November 22, 2014

  Actual Average Record
Temperature  
Mean Temperature 4 °F -  
Max Temperature 12 °F 12 °F 46 °F (2007)
Min Temperature -5 °F -1 °F -36 °F (1963)
Degree Days  
Heating Degree Days 62    
Moisture  
Dew Point -7 °F    
Average Humidity 56    
Maximum Humidity 76    
Minimum Humidity 45    
Precipitation  
Precipitation 0.00 in - - ()
Sea Level Pressure  
Sea Level Pressure 29.42 in    
Wind  
Wind Speed 8 mph (NNE)    
Max Wind Speed 13 mph    
Max Gust Speed -    
Visibility 10 miles    
Events      
Averages and records for this station are not official NWS values.
T = Trace of Precipitation, MM = Missing Value Source: NWS Daily Summary

Daily Weather History Graph

Daily Weather History Graph

Search for Another Location

Airport or City:

Trip Planner

Search our weather history database for the weather conditions in past years. The results will help you decide how hot, cold, wet, or windy it might be!

Date:

Astronomy

Nov. 22, 2014 Rise Set
Actual Time 9:46 AM AKST 3:22 PM AKST
Civil Twilight 8:39 AM AKST 4:29 PM AKST
Nautical Twilight 7:34 AM AKST 5:33 PM AKST
Astronomical Twilight 6:36 AM AKST 6:32 PM AKST
Moon 9:37 AM AKST (11/22) 4:13 PM AKST (11/22)
Length of Visible Light 7h 49m
Length of Day
5h 36m
New Moon, 0% of the Moon is Illuminated
Nov 22
New Moon
Nov 29
First Quarter
Dec 6
Full
Dec 14
Last Quarter
Dec 21
New

Hourly Weather History & Observations

Time (AKST) Temp. Windchill Dew Point Humidity Pressure Visibility Wind Dir Wind Speed Gust Speed Precip Events Conditions
12:58 AM 12.0 °F -0.4 °F -4.9 °F 47% 29.31 in 10.0 mi NNE 9.2 mph - N/A   Clear
1:58 AM 12.0 °F -1.3 °F -5.1 °F 46% 29.32 in 10.0 mi ENE 10.4 mph - N/A   Clear
2:58 AM 11.7 °F 0.0 °F -5.8 °F 46% 29.33 in 10.0 mi ENE 8.1 mph - N/A   Clear
3:58 AM 10.8 °F -4.3 °F -5.6 °F 48% 29.32 in 10.0 mi ENE 12.7 mph - N/A   Clear
4:58 AM 10.9 °F -3.4 °F -6.5 °F 45% 29.33 in 10.0 mi ENE 11.5 mph - N/A   Clear
5:58 AM 9.7 °F -3.3 °F -6.7 °F 48% 29.34 in 10.0 mi NNE 9.2 mph - N/A   Clear
6:58 AM 7.9 °F -6.4 °F -7.2 °F 50% 29.35 in 10.0 mi NNE 10.4 mph - N/A   Clear
7:58 AM 9.1 °F -6.4 °F -8.1 °F 46% 29.37 in 10.0 mi NE 12.7 mph - N/A   Clear
8:58 AM 8.2 °F -6.0 °F -8.3 °F 47% 29.38 in 10.0 mi NE 10.4 mph - N/A   Clear
9:58 AM 8.1 °F -6.2 °F -8.5 °F 47% 29.39 in 10.0 mi NNE 10.4 mph - N/A   Clear
10:58 AM 7.9 °F -8.0 °F -8.0 °F 49% 29.42 in 10.0 mi NNE 12.7 mph - N/A   Clear
11:58 AM 7.7 °F -6.6 °F -8.0 °F 49% 29.43 in 10.0 mi NNE 10.4 mph - N/A   Clear
12:58 PM 8.1 °F -7.0 °F -7.8 °F 49% 29.44 in 10.0 mi NNE 11.5 mph - N/A   Clear
1:58 PM 8.2 °F -5.1 °F -6.9 °F 50% 29.44 in 10.0 mi NNE 9.2 mph - N/A   Clear
2:58 PM 7.0 °F -6.6 °F -7.6 °F 51% 29.44 in 10.0 mi NNE 9.2 mph - N/A   Clear
3:58 PM 3.6 °F -7.3 °F -8.1 °F 58% 29.46 in 10.0 mi NNE 5.8 mph - N/A   Clear
4:58 PM 3.0 °F -4.4 °F -8.1 °F 60% 29.46 in 10.0 mi North 3.5 mph - N/A   Clear
5:58 PM 4.5 °F -2.7 °F -8.1 °F 56% 29.48 in 10.0 mi Variable 3.5 mph - N/A   Clear
6:58 PM -0.0 °F - -8.5 °F 68% 29.48 in 10.0 mi Calm Calm - N/A   Clear
7:58 PM -5.1 °F - -11.2 °F 75% 29.49 in 10.0 mi Calm Calm - N/A   Mostly Cloudy
8:58 PM 1.4 °F - -7.4 °F 67% 29.49 in 10.0 mi Calm Calm - N/A   Overcast
9:13 PM 1.4 °F - -5.8 °F 72% 29.44 in 10.0 mi NW 2.3 mph - N/A   Overcast
9:58 PM 0.1 °F - -5.8 °F 76% 29.50 in 10.0 mi Calm Calm - N/A   Overcast
10:58 PM 3.9 °F - -4.7 °F 67% 29.50 in 10.0 mi Calm Calm - N/A   Overcast
11:28 PM 3.2 °F - -4.0 °F 72% 29.46 in 10.0 mi Calm Calm - N/A   Scattered Clouds
11:58 PM 3.4 °F - -4.2 °F 71% 29.51 in 10.0 mi Calm Calm - N/A   Partly Cloudy